Regional Weather Roundup
Issued by NWS

Home | Current Version | Previous Version | Text Only | Print | Product List | Glossary On
Versions: 1 2 3 4 5 6 7 8 9 10 11 12 13 14 15 16 17 18 19 20 21 22 23 24 25 26 27 28 29 30 31 32 33 34 35 36 37 38 39 40 41 42 43 44 45 46 47 48 49 50
797
ASUS43 KLSX 202157
RWRMO

WEATHER SUMMARY FOR MISSOURI
NATIONAL WEATHER SERVICE SPRINGFIELD MO
400 PM CST FRI JAN 20 2017

NOTE: "FAIR" INDICATES FEW OR NO CLOUDS BELOW 12,000 FEET WITH NO
       SIGNIFICANT WEATHER AND/OR OBSTRUCTIONS TO VISIBILITY.
       CURRENT SKY AND/OR WEATHER CONDITIONS ARE NOT AVAILABLE FOR
       CHILLICOTHE AND FARMINGTON.

MOZ001>031-035>038-043-044-053-054-202300-
...NORTHERN AND WESTERN MISSOURI...

CITY           SKY/WX    TMP DP  RH WIND       PRES   REMARKS
KANSAS CTY INT LGT RAIN  49  46  90 E7        29.43F FOG
LEE`S SUMMIT   CLOUDY    53  47  79 SE8       29.44F
ST JOSEPH      CLOUDY    47  47 100 E9        29.45F FOG
CHILLICOTHE      N/A     48  48 100 VRB5      29.50R

$$
MOZ066>068-077>081-088>096-101>105-202300-
...SOUTHWEST MISSOURI...

CITY           SKY/WX    TMP DP  RH WIND       PRES   REMARKS
SPRINGFIELD    SUNNY     65  42  43 S16G26    29.47R
JOPLIN         SUNNY     65  40  39 S25G35    29.45R
BRANSON        MOSUNNY   66  41  39 S9G17     29.52S

$$
MOZ032>034-039>042-045>050-055>058-069>072-202300-
...CENTRAL MISSOURI...

CITY           SKY/WX    TMP DP  RH WIND       PRES   REMARKS
COLUMBIA       NOT AVBL
JEFFERSON CITY MOSUNNY   56  48  74 SE10      29.50F
ROLLA          SUNNY     57  48  72 S15       29.50F
SEDALIA        CLOUDY    57  47  69 SE7       29.48S
WARRENSBURG    CLOUDY    54  46  76 SE7       29.45F

$$
MOZ051-052-059>065-202300-
...EAST CENTRAL MISSOURI...

CITY           SKY/WX    TMP DP  RH WIND       PRES   REMARKS
ST LOUIS INTL  PTSUNNY   55  48  77 S8        29.56F

$$
MOZ072>076-082>087-097>100-106>115-202300-
...SOUTH CENTRAL AND SOUTHEAST MISSOURI...

CITY           SKY/WX    TMP DP  RH WIND       PRES   REMARKS
CAPE GIRARDEAU CLOUDY    60  51  72 S18       29.62S
POPLAR BLUFF   PTSUNNY   61  55  81 S9        29.60F
WEST PLAINS    SUNNY     62  49  62 S15       29.56R

$$



USA.gov is the U.S. government's official web portal to all federal, state and local government web resources and services.